Torna al catalogo

STARLINK-30255

AttivoComunicazioniVLEO
NORAD 57606·PAYLOAD·🇺🇸 United States

Lanciato Aug 11, 2023 da Cape Canaveral Space Force Station

Loading…

Prossimi Passaggi (prossime 24 ore)

TLE

AggiornatoSource: CelesTrak SupGP

Epoca: Sep 14, 2026, 20:54 UTC

1 57606C 23119E   26257.87131944 -.00016052  00000+0 -58148-3 0  2570
2 57606  43.0002  93.0425 0001417 271.4063 349.7357 15.27582634    16

Traccia STARLINK-30255 in tempo reale con AllMySat

Download on the App Store